Showing default

IRIDIUM 158, 43571

Orbit data source: Space-Track

IRIDIUM 158, 43571 is a payload satellite owned by Iridium (US) in LEO that was launched on Wed, 25 Jul 2018 UTC via an FALCON 9 launch vehicle from the Air Force Western Test Range (AFWTR). Payloads include a variety of satellites, spacecraft, and rockets equipped with specific instruments for various scientific and technological missions. These include communications satellites like Starlink; space stations such as the ISS; scientific satellites like the Hubble; Earth observation satellites from companies like Planet Labs, Umbra, and HawkEye 360; GPS; miniature CubeSats for education and research; and military/defense satellites.

Loading next visibility...
IRIDIUM 158 details
Identifier
43571, 2018-061C
Orbit
LEO
Last TLE update20 hours ago
Origin
Flag of USIridium (US)
ManufacturerNGIS SSG Gilbert
MissionOperational Commercial Communications
Bus & MotorELITEBUS, Unknown motor
Mass860 kg wet, 700 kg dry
Launch date (UTC)
2018-07-25 (6 years ago)
Launch vehicle
FALCON 9
Launch site
Air Force Western Test Range (AFWTR)
Object type
Payload
Rocket body
Debris
Shape & HBRTrap Box + 2 Pan, 9.4 m
Radar Cross Section14.423 m², Large (>1 m²)

Expand to show TLE details & history

TLE from 20 hours ago
0 IRIDIUM 158
1 43571U 18061C   24361.06896277  .00000004  00000-0 -56339-5 0  9993
2 43571  86.3965 281.6038 0001818  77.6946 282.4453 14.34217488336231
Epoch: 2024-12-26T01:39Z
Definitive object data (Epoch: 2024-12-26T01:39:18.383Z)
Latitude-0.00004°
Longitude161.72354°
Altitude780.439 km
Speed7.464 km/s
True Right ascension18h 46m 24s
True Declination0° 00' 00"
Sunlit
Object was in daylight at TLE epoch
Visualization TLE readout
Latitude-39.08411°
Longitude158.46038°
Altitude793.196 km
Speed7.455 km/s
Apparent Right ascension14h 30m 09s
Apparent Declination-68° 59' 20"
Sunlit
Object is in daylight
Visualization observer readout
Local Sidereal Time20:57:01
Azimuth207.328° SW
Elevation-39.137°
Doppler factor1
Orbital elements
Apogee altitude775.933 km
Perigee altitude773.332 km
Semi-major axis7,152.77 km
Eccentricity0.0001818
Inclination86.3965°
RAAN281.6038°
Arg. of periapsis77.6946°
True anomaly282.42496°
Mean anomaly282.4453°
Eccentric anomaly282.43513°
Mean motion3.58783 °/min
BSTAR-0.0000056339
Orbital period100.34 mins
Loading maneuver chart data...
Loading historical data...
Loading historical data...
Loading historical data...
Loading historical data...
Loading historical data...
Loading historical data...
Loading historical data...

IRIDIUM 158 Visibility forecast

Observer location: undefined°, undefined

Span
Click to sort rows by Start time (UTC) header in descending order
Start Az.
Max El. time (UTC)
Max El. Az.
Max El.
End time (UTC)
End Az.
9 mins2024-12-27 06:42:00.849Z9.285° NNE2024-12-27 06:46:00.849Z76.002° E39.508°2024-12-27 06:51:00.849Z162.486° S
4 mins2024-12-27 08:25:00.849Z299.277° NW2024-12-27 08:26:00.849Z286.17° WNW15.185°2024-12-27 08:29:00.849Z248.863° W
9 mins2024-12-27 19:38:00.849Z192.702° SSW2024-12-27 19:42:00.849Z263.9° W42.712°2024-12-27 19:47:00.849Z356.611° N
|